Regional Weather Roundup
Issued by NWS

Home | Current Version | Previous Version | Graphics & Text | Print | Product List | Glossary On
Versions: 1 2 3 4 5 6 7 8 9 10 11 12 13 14 15 16 17 18 19 20 21 22 23 24 25 26 27 28 29 30 31 32 33 34 35 36 37 38 39 40 41 42 43 44 45 46 47 48 49 50
000
ASUS43 KDMX 060507
RWRIA

WEATHER ROUNDUP FOR IOWA
NATIONAL WEATHER SERVICE DES MOINES IA
1200 AM CDT WED MAY 06 2015

NOTE: "FAIR" INDICATES FEW OR NO CLOUDS BELOW 12,000 FEET WITH NO
SIGNIFICANT WEATHER AND/OR OBSTRUCTIONS TO VISIBILITY.

* - THESE STATIONS ARE NOT NWS STATIONS...THUS NOT UNDER NWS
QUALITY CONTROL.  THEY ALSO DO NOT REPORT WEATHER SUCH
AS PRECIPITATION OR FOG.

IAZ001>003-012>014-020>022-031>034-043>046-060600-
   NORTHWEST IOWA

CITY           SKY/WX    TMP DP  RH WIND       PRES   REMARKS
CARROLL *      CLOUDY    63  63 100 SE9       30.03F FOG
CHEROKEE *     CLOUDY    63  63 100 E9G16     30.01F FOG
DENISON *      MOCLDY    64  61  88 SE8G14    30.00R
LE MARS *      CLEAR     64  63  94 SE10      29.99F
ORANGE CITY *  PTCLDY    61  61 100 E8        30.00F FOG
SHELDON *      CLOUDY    61  61 100 SE17G23   30.01S FOG
SIOUX CITY     MOCLDY    66  57  72 SE12      29.96F
SPENCER        FOG       60  32  34 SE17      30.04F VSB 1/2
STORM LAKE *   FOG       63  63 100 SE16      30.04S VSB 1/2
$$

IAZ055>058-069>071-079>083-090>094-060600-
   SOUTHWEST IOWA

CITY           SKY/WX    TMP DP  RH WIND       PRES   REMARKS
ATLANTIC *     PTCLDY    68  57  68 SE9       30.02F
AUDUBON *      PTCLDY    64  57  77 S3        30.04S
CLARINDA *     CLOUDY    64  63  94 S5        30.04F
COUNCIL BLFS * PTCLDY    66  61  82 SE16G24   29.99S
CRESTON *      PTCLDY    64  59  82 SE7       30.05S
HARLAN  *      MOCLDY    66  63  88 SE7       30.04F
LAMONI         CLOUDY    68  58  70 SE7       30.05F
RED OAK *      MOCLDY    66  59  77 SE14G21   30.02R
SHENANDOAH *   CLOUDY    64  63  94 SE14      30.01F
$$

IAZ047>049-059>061-072>074-084-060600-
   CENTRAL IOWA

CITY           SKY/WX    TMP DP  RH WIND       PRES   REMARKS
AMES           CLOUDY    64  62  93 SE13      30.07S FOG
ANKENY *       CLOUDY    66  64  94 SE10      30.07R FOG
CHARITON *     PTCLDY    66  59  77 SE7       30.07S
DES MOINES     CLOUDY    68  63  84 E10       30.06S HAZE
GRINNELL*      CLOUDY    63  63 100 E13       30.11R FOG
KNOXVILLE *    CLOUDY    66  63  88 E8        30.07S FOG
MARSHALLTOWN   FOG       60  60 100 E14       30.09F VSB 1/4
PELLA *        CLOUDY    65  65 100 E7        30.09S FOG
PERRY *          N/A     64  63  94 SE12      30.05S FOG
$$

IAZ004>006-015-016-023>025-035-036-060600-
   NORTH CENTRAL IOWA

CITY           SKY/WX    TMP DP  RH WIND       PRES   REMARKS
ALGONA *       FOG       59  59 100 SE16      30.08S VSB 1/4
CLARION *      FOG       59  59 100 SE20G26   30.08S VSB 1/4
ESTHERVILLE    FOG       56  56 100 SE15      30.07S VSB 1/4
FORT DODGE *   CLOUDY    63  59  88 E14       30.07S
MASON CITY     FOG       55  55 100 E13       30.13F VSB 1/4
FOREST CITY *  FOG       54  54 100 SE10      30.11S VSB 1/4
IOWA FALLS *   FOG       59  59 100 E13       30.10F VSB 1/4
$$

IAZ007>011-017>019-026>030-037>042-050>054-066-060600-
   NORTHEAST IOWA

CITY           SKY/WX    TMP DP  RH WIND       PRES   REMARKS
CEDAR RAPIDS   CLOUDY    59  59 100 E10       30.13S FOG
CHARLES CITY * FOG       55  55 100 SE12G20   30.14S VSB 1/2
CLINTON *      MOCLDY    55  54  94 E9        30.19F
DECORAH *      FOG       54  54 100 SE7       30.16S VSB 1/2
DUBUQUE        CLOUDY    53  52  96 E8        30.18S FOG
MONTICELLO *   CLOUDY    57  57 100 E9        30.16S FOG
OELWEIN *      CLOUDY    55  55 100 SE15      30.15S FOG
WATERLOO       CLOUDY    57  56  96 E13       30.12F FOG
$$

IAZ064-065-067-068-078-060600-
   EAST CENTRAL IOWA

CITY           SKY/WX    TMP DP  RH WIND       PRES   REMARKS
DAVENPORT      CLOUDY    58  56  93 E12       30.17R FOG
MT. PLEASANT * CLOUDY    66  64  94 E12       30.11S FOG
MUSCATINE *    CLOUDY    64  61  88 E9G15     30.14F FOG
QUAD CITIES    MOCLDY    59  55  87 E10       30.16R FOG
$$

IAZ062-063-075>077-085>089-095>099-060600-
   SOUTHEAST IOWA

CITY           SKY/WX    TMP DP  RH WIND       PRES   REMARKS
BURLINGTON     MOCLDY    68  66  93 E8        30.12S FOG
FAIRFIELD *    MOCLDY    66  63  88 E8        30.11S FOG
FORT MADISON * PTCLDY    66  64  94 E6        30.12S
KEOKUK *       PTCLDY    66  61  82 E5        30.10S
OSKALOOSA *      N/A     66  64  94 E12       30.10S FOG
CENTERVILLE *  PTCLDY    66  63  88 SE6       30.10S
OTTUMWA        CLOUDY    67  66  97 E8        30.09S FOG
WASHINGTON *   CLOUDY    66  55  68 E13       30.12S HAZE
$$

ABBREVIATIONS USED IN REMARKS
   TC - TEMPERATURES IN CELSIUS
  WCI - WIND CHILL INDEX
   HX - HEAT INDEX
  VSB - VISIBILITY
$$




USA.gov is the U.S. government's official web portal to all federal, state and local government web resources and services.